Buckland, AK

7:52 AM AKDT on April 19, 2018 (GMT -0800)
Buckland

Weather History for PABL - February, 2013

Change the Weather History Date:

Saturday, February 2, 2013

  Actual Average (PASK) Record (PASK)
Temperature  
Mean Temperature 5 °F -  
Max Temperature 17 °F 1 °F 35 °F (2007)
Min Temperature -7 °F -9 °F -50 °F (2006)
Degree Days  
Heating Degree Days 60    
Moisture  
Dew Point 0 °F    
Average Humidity 80    
Maximum Humidity 100    
Minimum Humidity 35    
Precipitation  
Precipitation 0.00 in - - ()
Sea Level Pressure  
Sea Level Pressure 29.69 in    
Wind  
Wind Speed 6 mph (ESE)    
Max Wind Speed 20 mph    
Max Gust Speed 29 mph    
Visibility 10 miles    
Events      
Averages and records for this station are not official NWS values.
T = Trace of Precipitation, MM = Missing Value Source: NWS Daily Summary

Daily Weather History Graph

Daily Weather History Graph

Search for Another Location

Airport or City:

Trip Planner

Search our weather history database for the weather conditions in past years. The results will help you decide how hot, cold, wet, or windy it might be!

Date:

Astronomy

Feb. 02, 2013 Rise Set
Actual Time 10:34 AM AKST 5:22 PM AKST
Civil Twilight 9:32 AM AKST 6:24 PM AKST
Nautical Twilight 8:29 AM AKST 7:28 PM AKST
Astronomical Twilight 7:30 AM AKST 8:27 PM AKST
Moon 2:51 AM AKST (2/2) 10:35 AM AKST (2/2)
Length of Visible Light 8h 52m
Length of Day
6h 48m
Waning Gibbous, 58% of the Moon is Illuminated
Feb 2
Waning Gibbous
Feb 3
Last Quarter
Feb 9
New
Feb 17
First Quarter
Feb 25
Full

Hourly Weather History & Observations

Time (AKST) Temp. Windchill Dew Point Humidity Pressure Visibility Wind Dir Wind Speed Gust Speed Precip Events Conditions
12:16 AM -5.8 °F -14.5 °F -5.8 °F 100% 29.97 in 10.0 mi NNE 3.5 mph - N/A   Unknown
12:36 AM -5.8 °F -14.5 °F -18.4 °F 55% 29.96 in 10.0 mi NE 3.5 mph - N/A   Unknown
12:56 AM -7.6 °F - -7.6 °F 100% 29.95 in 10.0 mi Calm Calm - N/A   Unknown
1:16 AM -7.6 °F -16.5 °F -14.8 °F 71% 29.95 in 10.0 mi South 3.5 mph - N/A   Unknown
1:36 AM -7.6 °F - -11.2 °F 84% 29.93 in 10.0 mi Calm Calm - N/A   Unknown
1:56 AM -7.6 °F - -11.2 °F 84% 29.92 in 10.0 mi Calm Calm - N/A   Unknown
2:16 AM -7.6 °F -18.8 °F -13.0 °F 77% 29.91 in 10.0 mi South 4.6 mph - N/A   Unknown
2:36 AM -5.8 °F - -5.8 °F 100% 29.90 in 10.0 mi Calm Calm - N/A   Unknown
2:56 AM -4.0 °F - -14.8 °F 60% 29.89 in 10.0 mi Calm Calm - N/A   Unknown
3:16 AM -4.0 °F -12.4 °F -4.0 °F 100% 29.88 in 10.0 mi NE 3.5 mph - N/A   Unknown
3:36 AM -4.0 °F - -7.6 °F 85% 29.87 in 10.0 mi Calm Calm - N/A   Unknown
3:56 AM -4.0 °F - -25.6 °F 35% 29.86 in 10.0 mi Calm Calm - N/A   Unknown
4:16 AM -5.8 °F -14.5 °F - N/A% 29.85 in 10.0 mi NNE 3.5 mph - N/A   Unknown
4:36 AM -5.8 °F - -20.2 °F 50% 29.84 in 10.0 mi Calm Calm - N/A   Unknown
4:56 AM -5.8 °F -14.5 °F -16.6 °F 60% 29.83 in 10.0 mi East 3.5 mph - N/A   Unknown
5:16 AM -5.8 °F -16.7 °F -5.8 °F 100% 29.82 in 10.0 mi SSE 4.6 mph - N/A   Unknown
5:36 AM -7.6 °F - -23.8 °F 45% 29.80 in 10.0 mi Calm Calm - N/A   Unknown
5:56 AM -7.6 °F -22.1 °F -7.6 °F 100% 29.79 in 10.0 mi SSE 6.9 mph - N/A   Unknown
6:16 AM -7.6 °F -16.5 °F -11.2 °F 84% 29.79 in 10.0 mi SSE 3.5 mph - N/A   Unknown
6:36 AM -5.8 °F - -20.2 °F 50% 29.78 in 10.0 mi Calm Calm - N/A   Unknown
6:56 AM -5.8 °F - -5.8 °F 100% 29.77 in 10.0 mi Calm Calm - N/A   Unknown
7:16 AM -5.8 °F -18.4 °F -7.6 °F 92% 29.77 in 10.0 mi South 5.8 mph - N/A   Unknown
7:36 AM -4.0 °F - -16.6 °F 55% 29.76 in 10.0 mi Calm Calm - N/A   Unknown
7:56 AM -2.2 °F - -7.6 °F 78% 29.75 in 10.0 mi Calm Calm - N/A   Unknown
8:16 AM -2.2 °F -10.4 °F - N/A% 29.74 in 10.0 mi WSW 3.5 mph - N/A   Unknown
8:36 AM -2.2 °F - -13.0 °F 60% 29.73 in 10.0 mi Calm Calm - N/A   Unknown
8:56 AM -2.2 °F - -11.2 °F 66% 29.72 in 10.0 mi Calm Calm - N/A   Unknown
9:16 AM -2.2 °F - -2.2 °F 100% 29.72 in 10.0 mi Calm Calm - N/A   Unknown
9:36 AM -0.4 °F -14.7 °F -0.4 °F 100% 29.70 in 10.0 mi North 8.1 mph - N/A   Unknown
9:56 AM 3.2 °F -9.1 °F -7.6 °F 61% 29.71 in 10.0 mi WSW 6.9 mph - N/A   Unknown
10:16 AM 1.4 °F -9.9 °F -9.4 °F 61% 29.70 in 10.0 mi West 5.8 mph - N/A   Unknown
10:36 AM 1.4 °F -9.9 °F -0.4 °F 92% 29.68 in 10.0 mi North 5.8 mph - N/A   Unknown
10:56 AM 1.4 °F -11.3 °F 1.4 °F 100% 29.68 in 10.0 mi NNW 6.9 mph - N/A   Unknown
11:16 AM 6.8 °F -4.8 °F 6.8 °F 100% 29.67 in 10.0 mi NE 6.9 mph - N/A   Unknown
11:36 AM 8.6 °F 2.0 °F -0.4 °F 67% 29.67 in 10.0 mi West 3.5 mph - N/A   Unknown
11:56 AM 12.2 °F 0.7 °F 3.2 °F 67% 29.66 in 10.0 mi ESE 8.1 mph - N/A   Unknown
12:16 PM 12.2 °F -3.1 °F 6.8 °F 79% 29.65 in 10.0 mi East 13.8 mph - N/A   Unknown
12:36 PM 12.2 °F -0.2 °F 6.8 °F 79% 29.65 in 10.0 mi East 9.2 mph - N/A   Unknown
12:56 PM 12.2 °F -3.1 °F 6.8 °F 79% 29.64 in 10.0 mi East 13.8 mph - N/A   Unknown
1:16 PM 12.2 °F -2.5 °F 8.6 °F 85% 29.63 in 9.0 mi East 12.7 mph 20.7 mph N/A   Unknown
1:36 PM 12.2 °F -2.5 °F 6.8 °F 79% 29.62 in 10.0 mi East 12.7 mph 19.6 mph N/A   Unknown
1:56 PM 12.2 °F -3.7 °F 6.8 °F 79% 29.62 in 10.0 mi East 15.0 mph 19.6 mph N/A   Unknown
2:16 PM 12.2 °F -4.3 °F 6.8 °F 79% 29.61 in 10.0 mi East 16.1 mph - N/A   Unknown
2:36 PM 12.2 °F -3.1 °F 6.8 °F 79% 29.60 in 10.0 mi East 13.8 mph 20.7 mph N/A   Unknown
3:36 PM 12.2 °F -4.3 °F 8.6 °F 85% 29.59 in 10.0 mi East 16.1 mph 24.2 mph N/A   Unknown
3:56 PM 12.2 °F -4.8 °F 6.8 °F 79% 29.58 in 10.0 mi East 17.3 mph 25.3 mph N/A   Unknown
4:16 PM 12.2 °F -4.8 °F 8.6 °F 85% 29.58 in 10.0 mi East 17.3 mph 24.2 mph N/A   Unknown
4:36 PM 12.2 °F -4.8 °F 8.6 °F 85% 29.58 in 10.0 mi East 17.3 mph 24.2 mph N/A   Unknown
4:56 PM 14.0 °F -3.0 °F 8.6 °F 79% 29.58 in 10.0 mi ESE 18.4 mph 23.0 mph N/A   Unknown
5:16 PM 15.8 °F -0.6 °F 10.4 °F 79% 29.57 in 10.0 mi ESE 18.4 mph 23.0 mph N/A   Unknown
5:36 PM 15.8 °F 0.9 °F 10.4 °F 79% 29.57 in 10.0 mi ESE 15.0 mph 23.0 mph N/A   Unknown
5:56 PM 15.8 °F -1.1 °F 10.4 °F 79% 29.56 in 10.0 mi ESE 19.6 mph 25.3 mph N/A   Unknown
6:16 PM 15.8 °F -0.2 °F 10.4 °F 79% 29.57 in 10.0 mi ESE 17.3 mph 23.0 mph N/A   Unknown
6:36 PM 15.8 °F -0.6 °F 10.4 °F 79% 29.56 in 10.0 mi ESE 18.4 mph 24.2 mph N/A   Unknown
6:56 PM 15.8 °F -0.2 °F 10.4 °F 79% 29.56 in 10.0 mi ESE 17.3 mph 24.2 mph N/A   Unknown
7:16 PM 15.8 °F -0.2 °F 10.4 °F 79% 29.56 in 10.0 mi ESE 17.3 mph 25.3 mph N/A   Unknown
7:36 PM 15.8 °F -0.6 °F 10.4 °F 79% 29.56 in 10.0 mi ESE 18.4 mph 28.8 mph N/A   Unknown
7:56 PM 15.8 °F -0.2 °F 12.2 °F 86% 29.56 in 7.0 mi ESE 17.3 mph 23.0 mph N/A   Unknown
8:16 PM 15.8 °F 0.9 °F 12.2 °F 86% 29.56 in 6.0 mi East 15.0 mph 21.9 mph N/A   Unknown
8:36 PM 15.8 °F 1.4 °F 12.2 °F 86% 29.56 in 6.0 mi ESE 13.8 mph - N/A   Unknown
8:56 PM 15.8 °F 1.4 °F 12.2 °F 86% 29.56 in 8.0 mi East 13.8 mph - N/A   Unknown
9:16 PM 15.8 °F 0.9 °F 12.2 °F 86% 29.56 in 9.0 mi ESE 15.0 mph 23.0 mph N/A   Unknown
9:36 PM 15.8 °F 0.9 °F 12.2 °F 86% 29.56 in 9.0 mi ESE 15.0 mph 23.0 mph N/A   Unknown
9:56 PM 15.8 °F 0.9 °F 12.2 °F 86% 29.56 in 10.0 mi ESE 15.0 mph 19.6 mph N/A   Unknown
10:16 PM 15.8 °F -1.1 °F 12.2 °F 86% 29.55 in 10.0 mi East 19.6 mph 23.0 mph N/A   Unknown
10:36 PM 17.6 °F 2.7 °F 12.2 °F 79% 29.56 in 10.0 mi ESE 16.1 mph - N/A   Unknown
10:56 PM 17.6 °F 2.7 °F 12.2 °F 79% 29.56 in 10.0 mi East 16.1 mph 23.0 mph N/A   Unknown
11:16 PM 17.6 °F 3.2 °F 12.2 °F 79% 29.56 in 8.0 mi East 15.0 mph - N/A   Unknown
11:36 PM 15.8 °F 0.9 °F 12.2 °F 86% 29.56 in 9.0 mi East 15.0 mph 20.7 mph N/A   Unknown
11:56 PM 15.8 °F 1.4 °F 12.2 °F 86% 29.56 in 5.0 mi East 13.8 mph 19.6 mph N/A   Unknown